Погода в Светлом

Россия / Челябинская область     53°41′36″N   60°22′11″E
темп.,
°C
ветер,
м/с
пор.,
м/с
влажн.,
%
обл.,
%
осадки,
мм/ч
давл.,
гПа
погр.,
м
13 мая, чт
чт1323:00+17зюз33325 0.0 102726
02:00+15зсз34394 0.0 102753
05:00+14сз22445 0.0 102711
08:00+18ссз345025 0.0 1028228
11:00+24с33366 0.0 10271193
14:00+26ссз33292 0.0 10262389
17:00+27ссз33275 0.0 10252559
20:00+24ссв11365 0.0 102511
14 мая, пт
пт1423:00+19юв22469 0.0 102611
02:00+18ю124765 0.0 102711
05:00+16ююз12475 0.0 102711
08:00+21ююз23370 0.0 1028215
11:00+26ююз33270 0.0 10271254
14:00+28юз44235 0.0 10262722
17:00+28юз55211 0.0 10252767
20:00+23ююз34300 0.0 102548
15 мая, сб
сб1523:00+20юз46322 0.0 102585
02:00+17сз45521 0.0 102574
05:00+16сз22500 0.0 102614
08:00+21з23392 0.0 1026200
11:00+26з34300 0.0 10251572
14:00+28з33245 0.0 10232539
17:00+29з33255 0.0 10222952
20:00+25юз22355 0.0 102120
16 мая, вс
вс1623:00+18в3657100 2.6 102494
02:00+17сз34602 0.0 102242
05:00+17ссз22595 0.0 102312
08:00+22зюз11455 0.0 1023180
11:00+27юз223157 0.0 10221436
14:00+29ююз332612 0.0 10212745
17:00+29ююз33245 0.0 10203120
20:00+25зюз223522 0.0 101930
17 мая, пн
пн1723:00+18сз476395 1.3 1021101
02:00+19с115899 0.0 101911
05:00+17зюз456395 0.0 102066
08:00+21з334813 0.0 1020206
11:00+27сз333161 0.0 10191498
14:00+29з3523100 0.0 10173405
17:00+26ссз683254 0.0 1017911
20:00+22з49499 0.5 1017195